Weather History for Beaumont, TX

Change the Weather History Date:

Saturday, January 28, 2012

  Actual Average Record
Temperature  
Mean Temperature 59 °F 53 °F  
Max Temperature 69 °F 63 °F 81 °F (1909)
Min Temperature 48 °F 44 °F 24 °F (1906)
Degree Days  
Heating Degree Days 6 12  
Month to date heating degree days 175 358  
Since 1 July heating degree days 616 908  
Cooling Degree Days 0 0  
Month to date cooling degree days 46 0  
Year to date cooling degree days 46 0  
Growing Degree Days 8 (Base 50)    
Moisture  
Dew Point 44 °F    
Average Humidity 65    
Maximum Humidity 100    
Minimum Humidity 29    
Precipitation  
Precipitation 0.00 in 0.16 in 2.09 in (1905)
Month to date precipitation 5.67 4.79  
Year to date precipitation 5.67 4.79  
Snow  
Snow 0.00 in 0.00 in 0.00 in ()
Month to date snowfall 0.0 0.0  
Since 1 July snowfall 0.0 T  
Snow Depth 0.00 in    
Sea Level Pressure  
Sea Level Pressure 30.22 in    
Wind  
Wind Speed 10 mph (North)    
Max Wind Speed 24 mph    
Max Gust Speed 29 mph    
Visibility 6 miles    
Events Fog    
T = Trace of Precipitation, MM = Missing Value Source: NWS Daily Summary

Daily Weather History Graph

Daily Weather History Graph

Search for Another Location

Airport:

Trip Planner

Search our weather history database for the weather conditions in past years. The results will help you decide how hot, cold, wet, or windy it might be!

Date:

Astronomy

Jan. 28, 2012 Rise Set
Actual Time 7:08 AM CST 5:49 PM CST
Civil Twilight 6:43 AM CST 6:14 PM CST
Nautical Twilight 6:14 AM CST 6:43 PM CST
Astronomical Twilight 5:46 AM CST 7:12 PM CST
Moon 10:00 AM CST (1/28) 11:06 PM CST (1/28)
Length of Visible Light 11h 31m
Length of Day
10h 40m
Waxing Crescent, 28% of the Moon is Illuminated
Jan 28
Waxing Crescent
Jan 30
First Quarter
Feb 7
Full
Feb 14
Last Quarter
Feb 21
New

Hourly Weather History & Observations

Time (CST) Temp. Dew Point Humidity Pressure Visibility Wind Dir Wind Speed Gust Speed Precip Events Conditions
12:53 AM 48.9 °F 46.9 °F 93% 30.10 in 9.0 mi SE 6.9 mph - N/A   Clear
1:35 AM 51.8 °F 48.2 °F 88% 30.10 in 1.8 mi SSE 3.5 mph - N/A   Clear
1:43 AM 51.8 °F 50.0 °F 94% 30.10 in 3.0 mi Calm Calm - N/A   Clear
1:53 AM 52.0 °F 50.0 °F 93% 30.11 in 7.0 mi Calm Calm - N/A   Clear
2:51 AM 51.8 °F 51.8 °F 100% 30.12 in 1.8 mi Calm Calm - N/A   Clear
2:53 AM 52.0 °F 51.1 °F 97% 30.12 in 1.2 mi Calm Calm - N/A   Clear
3:01 AM 50.0 °F 48.2 °F 94% 30.12 in 0.5 mi Calm Calm - N/A Fog Fog
3:11 AM 51.8 °F 48.2 °F 88% 30.12 in 1.8 mi Calm Calm - N/A   Clear
3:13 AM 51.8 °F 48.2 °F 88% 30.12 in 3.0 mi Calm Calm - N/A   Clear
3:29 AM 50.0 °F 48.2 °F 94% 30.13 in 1.8 mi Calm Calm - N/A   Clear
3:31 AM 48.2 °F 48.2 °F 100% 30.13 in 0.8 mi Calm Calm - N/A   Clear
3:48 AM 50.0 °F 48.2 °F 94% 30.15 in 1.5 mi NW 3.5 mph - N/A   Clear
3:53 AM 50.0 °F 48.9 °F 96% 30.15 in 1.2 mi Calm Calm - N/A   Clear
4:06 AM 50.0 °F 48.2 °F 94% 30.15 in 0.5 mi Calm Calm - N/A Fog Fog
4:17 AM 50.0 °F 48.2 °F 94% 30.15 in 1.0 mi Calm Calm - N/A   Clear
4:26 AM 50.0 °F 48.2 °F 94% 30.15 in 0.5 mi Calm Calm - N/A Fog Fog
4:37 AM 50.0 °F 48.2 °F 94% 30.16 in 1.8 mi Calm Calm - N/A   Mostly Cloudy
4:40 AM 50.0 °F 48.2 °F 94% 30.16 in 4.0 mi Calm Calm - N/A   Mostly Cloudy
4:51 AM 50.0 °F 48.2 °F 94% 30.16 in 1.5 mi NNW 3.5 mph - N/A   Mostly Cloudy
4:53 AM 48.9 °F 48.0 °F 97% 30.17 in 0.8 mi NNW 4.6 mph - N/A   Mostly Cloudy
5:06 AM 50.0 °F 48.2 °F 94% 30.17 in 0.5 mi NNW 4.6 mph - N/A Fog Fog
5:19 AM 51.8 °F 51.8 °F 100% 30.18 in 1.5 mi NW 11.5 mph - N/A   Overcast
5:25 AM 53.6 °F 51.8 °F 94% 30.19 in 3.0 mi NW 11.5 mph - N/A   Overcast
5:53 AM 54.0 °F 52.0 °F 93% 30.20 in 8.0 mi NNW 8.1 mph - N/A   Overcast
6:53 AM 55.0 °F 50.0 °F 83% 30.24 in 10.0 mi North 12.7 mph - N/A   Overcast
7:53 AM 55.0 °F 46.0 °F 72% 30.26 in 10.0 mi North 13.8 mph 23.0 mph N/A   Overcast
8:00 AM 55.4 °F 46.4 °F 72% 30.27 in 10.0 mi North 12.7 mph - N/A   Clear
8:53 AM 57.0 °F 43.0 °F 59% 30.28 in 10.0 mi North 16.1 mph - N/A   Clear
9:53 AM 59.0 °F 41.0 °F 51% 30.30 in 10.0 mi NNE 18.4 mph - 0.01 in   Clear
10:53 AM 62.1 °F 39.9 °F 44% 30.31 in 10.0 mi NNE 17.3 mph - N/A   Clear
11:53 AM 64.9 °F 37.9 °F 37% 30.30 in 10.0 mi NE 12.7 mph - N/A   Clear
12:53 PM 66.9 °F 34.0 °F 30% 30.29 in 10.0 mi NNE 12.7 mph - 0.01 in   Clear
1:53 PM 66.9 °F 35.1 °F 31% 30.29 in 10.0 mi North 13.8 mph - N/A   Clear
2:53 PM 68.0 °F 35.1 °F 30% 30.28 in 10.0 mi North 15.0 mph 23.0 mph N/A   Clear
3:53 PM 66.2 °F 33.8 °F 30% 30.28 in 10.0 mi North 12.7 mph - N/A   Clear
4:53 PM 64.0 °F 33.1 °F 31% 30.31 in 10.0 mi North 15.0 mph - N/A   Clear
5:53 PM 60.1 °F 32.0 °F 35% 30.32 in 10.0 mi North 12.7 mph - N/A   Clear
6:53 PM 57.0 °F 32.0 °F 39% 30.35 in 10.0 mi North 11.5 mph - N/A   Clear
7:53 PM 55.0 °F 33.1 °F 43% 30.38 in 10.0 mi North 9.2 mph - N/A   Clear
8:53 PM 53.1 °F 34.0 °F 48% 30.40 in 10.0 mi North 8.1 mph - N/A   Clear
9:53 PM 51.1 °F 34.0 °F 52% 30.40 in 10.0 mi North 9.2 mph - N/A   Clear
10:53 PM 50.0 °F 33.8 °F 54% 30.41 in 10.0 mi North 8.1 mph - N/A   Clear
11:53 PM 48.9 °F 33.1 °F 54% 30.40 in 10.0 mi NNE 8.1 mph - N/A   Clear